Location: Arrien
(43.3167°N, 0.1500°W)
Time: 04:43:43
(UTC+00:00)

CZ-4 R/B - Pass Details

Date: 15 October 2021
Orbit: 531 x 595 km, 97.8° (Epoch: 02 December)

Event Time Altitude Azimuth Distance (km) Brightness Sun altitude
Rises 18:02:36 0° 140° (SE) 2,699 4.5 -9.0°
Reaches altitude 10° 18:04:53 10° 129° (SE) 1,821 3.5 -9.4°
Maximum altitude 18:08:18 29° 69° (ENE) 1,047 2.2 -10.0°
Drops below altitude 10° 18:11:46 10° 9° (N) 1,866 3.9 -10.6°
Sets 18:14:08 0° 358° (N) 2,780 4.9 -11.1°
